CW6261 Weather Reports


time (UTC)temp
C
wind
direction
speed
KPH
gust
KPH
rain 1hr
cm
rain 24hr
cm
rain mn
cm
humidity
%
barometer
mb
20260506015202 25 182 6.4 9.7 0.00 0.00 0.00 78 100.6
20260506014202 26 177 3.2 6.4 0.00 0.00 0.00 78 100.6
20260506013702 26 183 1.6 9.7 0.00 0.00 0.00 78 100.6
20260506012702 26 225 3.2 6.4 0.00 0.00 0.00 77 100.6
20260506011202 26 185 3.2 8.0 0.00 0.00 0.00 76 100.6
20260506010702 26 204 6.4 9.7 0.00 0.00 0.00 76 100.6
20260506010203 26 196 3.2 9.7 0.00 0.00 0.00 75 100.6
20260506005702 26 200 1.6 8.0 0.00 0.00 0.00 74 100.6
20260506005202 27 171 0.0 6.4 0.00 0.00 0.00 73 100.6
20260506004203 27 198 4.8 6.4 0.00 0.00 0.00 71 100.6
20260506003703 27 238 4.8 8.0 0.00 0.00 0.00 70 100.5
20260506003202 27 225 3.2 8.0 0.00 0.00 0.00 69 100.5
20260506002702 27 225 3.2 9.7 0.00 0.00 0.00 69 100.5
20260506002202 27 247 6.4 9.7 0.00 0.00 0.00 69 100.5
20260506001702 27 181 8.0 9.7 0.00 0.00 0.00 69 100.5
20260506001203 27 235 3.2 8.0 0.00 0.00 0.00 69 100.5
20260506000702 27 227 4.8 9.7 0.00 0.00 0.00 69 100.5
20260506000204 27 231 3.2 6.4 0.00 0.00 0.00 69 100.5
20260505235703 27 190 12.9 12.9 0.00 0.00 0.00 69 100.5
20260505235202 27 201 9.7 12.9 0.00 0.00 0.00 69 100.5
20260505233703 27 229 3.2 11.3 0.00 0.00 0.00 69 100.5
20260505233202 27 189 9.7 12.9 0.00 0.00 0.00 69 100.5
20260505232202 27 221 4.8 12.9 0.00 0.00 0.00 69 100.5
20260505231202 27 109 3.2 9.7 0.00 0.00 0.00 68 100.5
20260505230703 27 198 6.4 16.1 0.00 0.00 0.00 68 100.5
20260505230202 27 198 3.2 17.7 0.00 0.00 0.00 68 100.5
20260505225701 27 199 6.4 6.4 0.00 0.00 0.00 67 100.5
20260505225202 28 227 6.4 11.3 0.00 0.00 0.00 66 100.5
20260505224702 28 217 6.4 9.7 0.00 0.00 0.00 65 100.5
20260505223702 28 250 3.2 12.9 0.00 0.00 0.00 65 100.5
20260505223202 28 200 6.4 9.7 0.00 0.00 0.00 65 100.5
20260505222702 27 207 4.8 9.7 0.00 0.00 0.00 65 100.5
20260505222202 27 189 6.4 14.5 0.00 0.00 0.00 65 100.5
20260505221702 27 192 8.0 14.5 0.00 0.00 0.00 66 100.5
20260505220702 27 205 3.2 14.5 0.00 0.00 0.00 66 100.5
20260505215702 28 177 12.9 19.3 0.00 0.00 0.00 65 100.5
20260505215202 28 192 8.0 17.7 0.00 0.00 0.00 65 100.5
20260505214702 28 200 11.3 19.3 0.00 0.00 0.00 65 100.6
20260505214203 28 236 4.8 19.3 0.00 0.00 0.00 65 100.6
20260505213702 28 232 8.0 17.7 0.00 0.00 0.00 64 100.6
20260505213202 27 230 6.4 12.9 0.00 0.00 0.00 66 100.6
20260505212702 27 206 9.7 12.9 0.00 0.00 0.00 66 100.6
20260505212203 27 240 8.0 27.4 0.00 0.00 0.00 66 100.6
20260505211702 28 183 9.7 22.5 0.00 0.00 0.00 65 100.6
20260505211202 27 180 3.2 20.9 0.00 0.00 0.00 67 100.6
20260505210702 27 197 8.0 19.3 0.00 0.00 0.00 67 100.6
20260505210202 27 183 4.8 16.1 0.00 0.00 0.00 67 100.6
20260505205702 27 181 6.4 20.9 0.00 0.00 0.00 67 100.6
20260505205202 27 193 3.2 20.9 0.00 0.00 0.00 67 100.6
20260505203702 27 167 1.6 19.3 0.00 0.00 0.00 68 100.6
20260505202703 27 231 6.4 17.7 0.00 0.00 0.00 68 100.7
20260505202202 27 158 6.4 16.1 0.00 0.00 0.00 69 100.7
20260505201702 27 205 4.8 19.3 0.00 0.00 0.00 69 100.7
20260505201202 27 243 6.4 9.7 0.00 0.00 0.00 69 100.7
20260505200702 27 188 6.4 12.9 0.00 0.00 0.00 70 100.7
20260505200202 27 175 12.9 17.7 0.00 0.00 0.00 69 100.7
20260505195202 27 219 9.7 22.5 0.00 0.00 0.00 69 100.7
20260505194703 27 189 11.3 22.5 0.00 0.00 0.00 68 100.7
20260505194202 27 224 9.7 12.9 0.00 0.00 0.00 68 100.7
20260505193703 27 221 12.9 19.3 0.00 0.00 0.00 68 100.7
20260505192702 27 203 11.3 17.7 0.00 0.00 0.00 67 100.7
20260505192203 27 239 6.4 14.5 0.00 0.00 0.00 67 100.7
20260505191702 27 239 4.8 9.7 0.00 0.00 0.00 68 100.7
20260505191202 27 213 6.4 9.7 0.00 0.00 0.00 68 100.7
20260505190703 26 252 9.7 9.7 0.00 0.00 0.00 68 100.7
20260505190202 26 211 1.6 12.9 0.00 0.00 0.00 70 100.7
20260505185702 26 233 4.8 9.7 0.00 0.00 0.00 68 100.7
20260505185202 26 234 4.8 9.7 0.00 0.00 0.00 70 100.7
20260505184702 26 203 6.4 12.9 0.00 0.00 0.00 70 100.7
20260505184202 26 247 4.8 8.0 0.00 0.00 0.00 72 100.7
20260505183702 26 176 8.0 11.3 0.00 0.00 0.00 72 100.7
20260505183202 25 213 4.8 9.7 0.00 0.00 0.00 72 100.8
20260505182703 25 206 8.0 14.5 0.00 0.00 0.00 73 100.8
20260505182202 25 238 8.0 12.9 0.00 0.00 0.00 74 100.8
20260505181702 25 235 3.2 12.9 0.00 0.00 0.00 74 100.8
20260505181202 24 180 8.0 11.3 0.00 0.00 0.00 76 100.8
20260505180702 24 219 3.2 12.9 0.00 0.00 0.00 76 100.8
20260505180202 24 213 8.0 11.3 0.00 0.00 0.00 76 100.8
20260505175702 24 239 9.7 12.9 0.00 0.00 0.00 76 100.8
20260505175203 24 227 4.8 11.3 0.00 0.00 0.00 77 100.8
20260505174702 24 209 8.0 11.3 0.00 0.00 0.00 78 100.8
20260505173703 23 247 6.4 9.7 0.00 0.00 0.00 78 100.8
20260505173202 23 261 6.4 17.7 0.00 0.00 0.00 78 100.8
20260505172702 23 206 6.4 9.7 0.00 0.00 0.00 79 100.8
20260505172202 23 215 6.4 14.5 0.00 0.00 0.00 80 100.8
20260505171702 23 243 4.8 9.7 0.00 0.00 0.00 81 100.8
20260505170702 23 211 8.0 14.5 0.00 0.00 0.00 81 100.8
20260505170202 23 168 3.2 6.4 0.00 0.00 0.00 81 100.8
20260505165702 23 260 3.2 9.7 0.00 0.00 0.00 81 100.8
20260505165202 23 227 8.0 11.3 0.00 0.00 0.00 81 100.8
20260505164703 23 239 3.2 16.1 0.00 0.00 0.00 81 100.8
20260505164203 23 228 8.0 12.9 0.00 0.00 0.00 81 100.8
20260505163702 22 243 4.8 8.0 0.00 0.00 0.00 82 100.8
20260505163202 22 222 3.2 9.7 0.00 0.00 0.00 83 100.8
20260505162702 22 250 6.4 8.0 0.00 0.00 0.00 84 100.8
20260505162202 22 248 8.0 9.7 0.00 0.00 0.00 84 100.8
20260505161703 22 264 6.4 9.7 0.00 0.00 0.00 84 100.8
20260505161202 22 261 4.8 16.1 0.00 0.00 0.00 85 100.8
20260505160702 22 233 4.8 16.1 0.00 0.00 0.00 86 100.8
20260505153203 21 182 6.4 16.1 0.00 0.00 0.00 87 100.8
20260505152702 22 214 6.4 8.0 0.00 0.00 0.00 87 100.8
20260505152202 22 231 9.7 12.9 0.00 0.00 0.00 87 100.8
20260505151202 21 221 3.2 9.7 0.00 0.00 0.00 87 100.8
20260505150703 21 240 8.0 14.5 0.00 0.00 0.00 88 100.8
20260505150202 21 212 9.7 16.1 0.00 0.00 0.00 88 100.8
20260505140202 21 239 6.4 16.1 0.00 0.00 0.00 89 100.8
20260505130202 21 259 4.8 8.0 0.00 0.00 0.00 89 100.7
20260505124702 21 184 12.9 17.7 0.00 0.00 0.00 89 100.7
20260505124202 21 209 8.0 14.5 0.00 0.00 0.00 89 100.7
20260505123702 21 197 8.0 9.7 0.00 0.00 0.00 89 100.7
20260505123202 21 197 3.2 11.3 0.00 0.00 0.00 89 100.7
20260505122702 21 176 3.2 9.7 0.00 0.00 0.00 89 100.7
20260505122202 21 167 11.3 14.5 0.00 0.00 0.00 89 100.7
20260505121703 21 191 6.4 16.1 0.00 0.00 0.00 89 100.7
20260505121202 20 219 8.0 9.7 0.00 0.00 0.00 89 100.7
20260505120702 21 193 6.4 16.1 0.00 0.00 0.00 89 100.7
20260505120201 21 181 11.3 17.7 0.00 0.00 0.00 89 100.7
20260505115202 20 225 4.8 9.7 0.00 0.00 0.00 89 100.7
20260505114703 20 205 4.8 12.9 0.00 0.00 0.00 89 100.7
20260505114202 20 257 3.2 4.8 0.00 0.00 0.00 89 100.7
20260505113704 20 271 6.4 14.5 0.00 0.00 0.00 89 100.7
20260505113202 20 212 9.7 19.3 0.00 0.00 0.00 90 100.7
20260505112703 20 223 9.7 9.7 0.00 0.00 0.00 89 100.7
20260505112202 20 235 11.3 11.3 0.00 0.00 0.00 89 100.7
20260505111703 20 218 12.9 20.9 0.00 0.00 0.00 89 100.7
20260505111201 20 247 8.0 20.9 0.00 0.00 0.00 89 100.7
20260505110702 20 188 9.7 11.3 0.00 0.00 0.00 89 100.7
20260505110203 21 236 4.8 16.1 0.00 0.00 0.00 88 100.7
20260505102202 21 219 8.0 14.5 0.00 0.00 0.00 87 100.7
20260505101702 21 221 6.4 14.5 0.00 0.00 0.00 87 100.7
20260505101202 21 221 6.4 14.5 0.00 0.00 0.00 87 100.7
20260505100702 21 196 14.5 17.7 0.00 0.00 0.00 87 100.7
20260505100202 21 247 4.8 11.3 0.00 0.00 0.00 87 100.7
20260505095702 21 260 4.8 8.0 0.00 0.00 0.00 86 100.7
20260505095202 21 242 6.4 16.1 0.00 0.00 0.00 87 100.7
20260505094203 21 200 3.2 16.1 0.00 0.00 0.00 86 100.7
20260505093702 21 229 6.4 9.7 0.00 0.00 0.00 86 100.7
20260505092702 21 254 6.4 12.9 0.00 0.00 0.00 87 100.7
20260505092201 21 216 11.3 12.9 0.00 0.00 0.00 87 100.7
20260505091702 21 204 3.2 8.0 0.00 0.00 0.00 86 100.7
20260505091202 21 233 11.3 25.7 0.00 0.00 0.00 87 100.7
20260505090702 21 179 4.8 20.9 0.00 0.00 0.00 87 100.7
20260505090201 21 244 3.2 11.3 0.00 0.00 0.00 87 100.7
20260505085202 21 255 8.0 16.1 0.00 0.00 0.00 87 100.7
20260505084703 21 226 8.0 11.3 0.00 0.00 0.00 87 100.7
20260505084202 21 218 6.4 17.7 0.00 0.00 0.00 87 100.7
20260505083702 21 264 9.7 25.7 0.00 0.00 0.00 87 100.7
20260505083201 21 246 9.7 12.9 0.00 0.00 0.00 87 100.8
20260505082702 21 234 3.2 8.0 0.00 0.00 0.00 87 100.8
20260505082202 21 241 6.4 16.1 0.00 0.00 0.00 87 100.8
20260505081202 21 249 8.0 17.7 0.00 0.00 0.00 86 100.8
20260505080702 21 219 4.8 14.5 0.00 0.00 0.00 86 100.8
20260505080202 21 205 3.2 14.5 0.00 0.00 0.00 86 100.8
20260505075702 21 213 4.8 9.7 0.00 0.00 0.00 86 100.8
20260505075203 21 188 4.8 16.1 0.00 0.00 0.00 86 100.8
20260505074702 21 240 6.4 12.9 0.00 0.00 0.00 86 100.8
20260505074202 21 209 6.4 9.7 0.00 0.00 0.00 86 100.8
20260505073702 21 180 14.5 17.7 0.00 0.00 0.00 86 100.8
20260505072702 21 224 9.7 11.3 0.00 0.00 0.00 86 100.8
20260505072203 21 224 4.8 14.5 0.00 0.00 0.00 86 100.8
20260505071703 21 228 9.7 14.5 0.00 0.00 0.00 86 100.8
20260505071202 21 209 6.4 16.1 0.00 0.00 0.00 85 100.8
20260505070203 21 215 4.8 9.7 0.00 0.00 0.00 85 100.8
20260505065702 21 214 6.4 19.3 0.00 0.00 0.00 85 100.8
20260505065202 21 229 9.7 24.1 0.00 0.00 0.00 85 100.8
20260505064702 21 239 8.0 17.7 0.00 0.00 0.00 85 100.8
20260505063702 21 224 8.0 16.1 0.00 0.00 0.00 85 100.8
20260505062703 21 225 11.3 17.7 0.00 0.00 0.00 84 100.9
20260505061702 21 220 8.0 17.7 0.00 0.00 0.00 84 100.9
20260505061202 21 198 6.4 12.9 0.00 0.00 0.00 84 100.9
20260505060704 21 198 8.0 19.3 0.00 0.00 0.00 84 100.9
20260505060202 21 227 9.7 22.5 0.00 0.00 0.00 83 100.9
20260505055702 21 205 16.1 16.1 0.00 0.00 0.00 83 100.9
20260505055202 21 205 11.3 17.7 0.00 0.00 0.00 83 100.9
20260505054702 21 245 6.4 9.7 0.00 0.00 0.00 83 100.9
20260505054202 21 212 4.8 8.0 0.00 0.00 0.00 83 100.9
20260505053702 21 210 12.9 17.7 0.00 0.00 0.00 83 100.9
20260505053203 21 236 3.2 12.9 0.00 0.00 0.00 83 100.9
20260505052703 21 188 11.3 14.5 0.00 0.00 0.00 83 100.9
20260505052202 21 212 3.2 12.9 0.00 0.00 0.00 83 100.9
20260505051702 21 219 1.6 11.3 0.00 0.00 0.00 83 100.9
20260505051202 21 240 4.8 16.1 0.00 0.00 0.00 83 100.9
20260505050702 21 217 3.2 11.3 0.00 0.00 0.00 83 100.9
20260505041704 22 189 4.8 9.7 0.00 0.00 0.00 80 100.9
20260505041202 22 204 9.7 16.1 0.00 0.00 0.00 80 100.9
20260505040702 22 214 4.8 16.1 0.00 0.00 0.00 80 100.9
20260505035202 22 183 6.4 9.7 0.00 0.00 0.00 79 100.9
20260505034702 22 173 11.3 17.7 0.00 0.00 0.00 79 100.9
20260505034202 22 171 9.7 16.1 0.00 0.00 0.00 79 100.9
20260505033702 22 213 6.4 9.7 0.00 0.00 0.00 78 100.9
20260505033202 22 201 9.7 16.1 0.00 0.00 0.00 78 100.9
20260505032703 22 221 1.6 12.9 0.00 0.00 0.00 77 100.9
20260505031702 22 174 6.4 12.9 0.00 0.00 0.00 77 100.9
20260505030702 23 178 4.8 16.1 0.00 0.00 0.00 76 100.9
20260505030203 23 208 6.4 11.3 0.00 0.00 0.00 75 100.9
20260505025703 23 191 3.2 19.3 0.00 0.00 0.00 75 100.9
20260505024202 23 194 9.7 9.7 0.00 0.00 0.00 74 100.9
20260505023702 23 221 4.8 11.3 0.00 0.00 0.00 74 100.9
20260505023202 23 189 9.7 14.5 0.00 0.00 0.00 73 100.8
20260505022702 23 204 8.0 12.9 0.00 0.00 0.00 73 100.8
20260505022202 23 179 9.7 19.3 0.00 0.00 0.00 72 100.8
20260505021702 23 191 3.2 19.3 0.00 0.00 0.00 71 100.8
20260505021202 23 187 6.4 19.3 0.00 0.00 0.00 71 100.8
20260505020702 23 188 11.3 16.1 0.00 0.00 0.00 70 100.8
20260505020202 23 208 6.4 9.7 0.00 0.00 0.00 68 100.9
20260505015702 23 205 6.4 11.3 0.00 0.00 0.00 68 100.9